IW9DKU-3 Weather Reports


time (UTC)temp
F
wind
direction
speed
knots
gust
knots
rain 1hr
in
rain 24hr
in
rain mn
in
humidity
%
barometer
mb
20260504045431 65 0.0 0.0 0.00 0.00 0.00 60 1027.6
20260504043428 65 0.0 0.0 0.00 0.00 0.00 60 1027.5
20260504041424 65 0.0 0.0 0.00 0.00 0.00 59 1027.4
20260504035502 65 0.0 0.0 0.00 0.00 0.00 59 1027.3
20260504035421 65 0.0 0.0 0.00 0.00 0.00 59 1027.3
20260504033417 65 0.0 0.0 0.00 0.00 0.00 59 1027.3
20260504025411 65 0.0 0.0 0.00 0.00 0.00 60 1027.4
20260504023407 65 0.0 0.0 0.00 0.00 0.00 60 1027.6
20260504022233 65 0.0 0.0 0.00 0.00 0.00 60 1027.5
20260504021404 65 0.0 0.0 0.00 0.00 0.00 60 1027.5
20260504015400 65 0.0 0.0 0.00 0.00 0.00 59 1027.5
20260504013357 65 0.0 0.0 0.00 0.00 0.00 58 1027.5
20260504011353 65 0.0 0.0 0.00 0.00 0.00 57 1027.5
20260504005350 66 0.0 0.0 0.00 0.00 0.00 59 1027.5
20260504003346 66 0.0 0.0 0.00 0.00 0.00 58 1027.6
20260504001343 66 0.0 0.0 0.00 0.00 0.00 57 1027.6
20260503235339 66 0.0 0.0 0.00 0.00 0.00 59 1027.8
20260503233336 66 0.0 0.0 0.00 0.00 0.00 59 1028.0
20260503231333 66 0.0 0.0 0.00 0.00 0.00 59 1028.1
20260503225329 66 0.0 0.0 0.00 0.00 0.00 59 1028.2
20260503223326 67 0.0 0.0 0.00 0.00 0.00 59 1028.3
20260503221322 67 0.0 0.0 0.00 0.00 0.00 59 1028.3
20260503215319 67 0.0 0.0 0.00 0.00 0.00 59 1028.3
20260503213315 67 0.0 0.0 0.00 0.00 0.00 60 1028.1
20260503211312 67 0.0 0.0 0.00 0.00 0.00 59 1028.2
20260503205308 67 0.0 0.0 0.00 0.00 0.00 59 1028.2
20260503203305 67 0.0 0.0 0.00 0.00 0.00 59 1028.1
20260503201301 68 0.0 0.0 0.00 0.00 0.00 58 1028.1
20260503195258 68 0.0 0.0 0.00 0.00 0.00 58 1027.9
20260503193254 68 0.0 0.0 0.00 0.00 0.00 58 1027.9
20260503191251 68 0.0 0.0 0.00 0.00 0.00 57 1027.8
20260503185248 68 0.0 0.0 0.00 0.00 0.00 57 1027.6
20260503183244 69 0.0 0.0 0.00 0.00 0.00 57 1027.5
20260503181241 69 0.0 0.0 0.00 0.00 0.00 56 1027.3
20260503175237 69 0.0 0.0 0.00 0.00 0.00 56 1027.1
20260503173234 69 0.0 0.0 0.00 0.00 0.00 56 1027.1
20260503171230 69 0.0 0.0 0.00 0.00 0.00 55 1027.1
20260503131149 70 0.0 0.0 0.00 0.00 0.00 50 1027.6
20260503081057 67 0.0 0.0 0.00 0.00 0.00 58 1028.6
20260503071047 65 0.0 0.0 0.00 0.00 0.00 61 1028.5
20260503055033 64 0.0 0.0 0.00 0.00 0.00 61 1028.4
20260503053029 63 0.0 0.0 0.00 0.00 0.00 62 1028.3